FW2795 Weather Reports


Display with metric or nautical units.
time (UTC)temp
F
wind
direction
speed
MPH
gust
MPH
rain 1hr
in
rain 24hr
in
rain mn
in
humidity
%
barometer
mb
20260903161505 80 297 10.0 11.0 0.00 0.00 0.00 51 1017.4
20260903161032 79 292 4.0 6.0 0.00 0.00 0.00 51 1017.2
20260903160507 79 296 8.0 11.0 0.00 0.00 0.00 51 1017.3
20260903160006 80 277 11.0 14.0 0.00 0.00 0.00 52 1017.2
20260903155505 79 278 4.0 5.0 0.00 0.00 0.00 55 1017.1
20260903155020 79 300 4.0 8.0 0.00 0.00 0.00 55 1017.1
20260903154505 79 285 8.0 14.0 0.00 0.00 0.00 57 1017.2
20260903154005 78 235 4.0 5.0 0.00 0.00 0.00 58 1017.1
20260903153504 79 234 6.0 8.0 0.00 0.00 0.00 58 1017.5
20260903153019 79 239 4.0 7.0 0.00 0.00 0.00 58 1017.5
20260903152519 79 261 2.0 4.0 0.00 0.00 0.00 58 1017.5
20260903152007 79 259 5.0 8.0 0.00 0.00 0.00 57 1017.8
20260903151521 79 255 8.0 11.0 0.00 0.00 0.00 54 1017.7
20260903151026 80 273 8.0 10.0 0.00 0.00 0.00 52 1017.9
20260903150516 81 246 2.0 4.0 0.00 0.00 0.00 52 1017.7
20260903150020 81 252 4.0 5.0 0.00 0.00 0.00 51 1017.8
20260903145510 82 245 8.0 11.0 0.00 0.00 0.00 48 1017.8
20260903145025 81 263 4.0 6.0 0.00 0.00 0.00 54 1017.7
20260903144509 80 259 3.0 4.0 0.00 0.00 0.00 55 1017.6
20260903144008 80 270 5.0 9.0 0.00 0.00 0.00 53 1017.7
20260903143508 80 270 7.0 10.0 0.00 0.00 0.00 53 1017.7
20260903143023 80 281 4.0 8.0 0.00 0.00 0.00 53 1017.8
20260903142505 81 318 5.0 8.0 0.00 0.00 0.00 51 1018.1
20260903142020 81 298 7.0 9.0 0.00 0.00 0.00 52 1017.9
20260903141524 82 276 4.0 5.0 0.00 0.00 0.00 49 1018.1
20260903141014 81 277 8.0 10.0 0.00 0.00 0.00 52 1017.8
20260903140514 81 271 8.0 10.0 0.00 0.00 0.00 52 1017.9
20260903140013 81 205 4.0 8.0 0.00 0.00 0.00 51 1018.1
20260903135513 81 232 5.0 9.0 0.00 0.00 0.00 51 1018.0
20260903135012 81 256 5.0 8.0 0.00 0.00 0.00 53 1018.0
20260903134512 79 243 6.0 12.0 0.00 0.00 0.00 53 1018.0
20260903134016 80 228 8.0 14.0 0.00 0.00 0.00 53 1018.1
20260903133516 80 231 8.0 11.0 0.00 0.00 0.00 54 1018.1
20260903133016 80 284 8.0 11.0 0.00 0.00 0.00 56 1018.3
20260903132515 80 251 6.0 10.0 0.00 0.00 0.00 55 1018.3
20260903132015 80 217 5.0 8.0 0.00 0.00 0.00 55 1018.2
20260903131505 80 247 4.0 6.0 0.00 0.00 0.00 55 1018.4
20260903131020 80 263 5.0 8.0 0.00 0.00 0.00 54 1018.2
20260903130504 80 288 4.0 8.0 0.00 0.00 0.00 52 1018.4
20260903130019 81 253 4.0 7.0 0.00 0.00 0.00 53 1018.4
20260903125524 80 268 4.0 9.0 0.00 0.00 0.00 55 1018.4
20260903125014 80 267 4.0 8.0 0.00 0.00 0.00 56 1018.4
20260903124513 79 240 3.0 4.0 0.00 0.00 0.00 58 1018.5
20260903124011 78 234 3.0 6.0 0.00 0.00 0.00 59 1018.4
20260903123510 78 236 4.0 5.0 0.00 0.00 0.00 60 1018.4
20260903123025 77 244 3.0 5.0 0.00 0.00 0.00 61 1018.7
20260903122509 76 254 5.0 8.0 0.00 0.00 0.00 61 1018.7
20260903122009 76 240 3.0 5.0 0.00 0.00 0.00 61 1018.8
20260903121509 76 256 4.0 5.0 0.00 0.00 0.00 61 1018.7
20260903121023 76 253 3.0 4.0 0.00 0.00 0.00 60 1018.8
20260903120508 76 260 4.0 6.0 0.00 0.00 0.00 60 1018.8
20260903120008 76 261 6.0 8.0 0.00 0.00 0.00 60 1018.5
20260903115508 76 253 7.0 9.0 0.00 0.00 0.00 60 1018.6
20260903115022 76 271 5.0 8.0 0.00 0.00 0.00 60 1018.6
20260903114507 76 266 6.0 10.0 0.00 0.00 0.00 60 1018.6
20260903114007 76 264 4.0 8.0 0.00 0.00 0.00 60 1018.6
20260903113506 76 270 4.0 5.0 0.00 0.00 0.00 60 1018.5
20260903113021 76 249 8.0 10.0 0.00 0.00 0.00 60 1018.4
20260903112506 76 278 4.0 7.0 0.00 0.00 0.00 60 1018.5
20260903112005 76 235 4.0 6.0 0.00 0.00 0.00 61 1018.4
20260903111505 76 280 2.0 3.0 0.00 0.00 0.00 62 1018.4
20260903111020 76 282 4.0 9.0 0.00 0.00 0.00 61 1018.4
20260903110519 76 257 5.0 8.0 0.00 0.00 0.00 61 1018.4
20260903110009 76 252 7.0 10.0 0.00 0.00 0.00 61 1018.4
20260903105509 75 264 2.0 4.0 0.00 0.00 0.00 63 1018.5
20260903105023 75 257 3.0 5.0 0.00 0.00 0.00 62 1018.6
20260903104508 75 246 2.0 4.0 0.00 0.00 0.00 62 1018.5
20260903104008 75 235 3.0 4.0 0.00 0.00 0.00 62 1018.6
20260903103507 75 222 4.0 7.0 0.00 0.00 0.00 61 1018.5
20260903103022 76 202 7.0 9.0 0.00 0.00 0.00 61 1018.5
20260903102512 76 230 4.0 5.0 0.00 0.00 0.00 63 1018.5
20260903102011 75 240 2.0 2.0 0.00 0.00 0.00 65 1018.5
20260903101510 73 251 2.0 4.0 0.00 0.00 0.00 67 1018.6
20260903101025 72 234 5.0 8.0 0.00 0.00 0.00 66 1018.7
20260903100514 72 232 4.0 6.0 0.00 0.00 0.00 70 1018.6
20260903100013 72 237 2.0 4.0 0.00 0.00 0.00 71 1018.5
20260903095513 71 218 2.0 4.0 0.00 0.00 0.00 71 1018.7
20260903095028 71 205 3.0 4.0 0.00 0.00 0.00 71 1018.7
20260903094503 71 203 7.0 11.0 0.00 0.00 0.00 70 1018.7
20260903094002 72 169 4.0 6.0 0.00 0.00 0.00 71 1018.6
20260903093517 71 202 2.0 4.0 0.00 0.01 0.00 71 1018.5
20260903093022 71 210 4.0 4.0 0.00 0.01 0.00 71 1018.5
20260903092506 71 261 3.0 5.0 0.00 0.01 0.00 71 1018.5
20260903092006 71 290 3.0 4.0 0.00 0.01 0.00 71 1018.6
20260903091506 71 285 3.0 4.0 0.00 0.02 0.00 71 1018.6
20260903091035 71 260 5.0 8.0 0.00 0.02 0.00 71 1018.6
20260903090510 71 291 6.0 11.0 0.00 0.02 0.00 71 1018.7
20260903090010 71 269 4.0 4.0 0.00 0.04 0.00 72 1018.6
20260903085509 70 276 3.0 4.0 0.00 0.04 0.00 73 1018.6
20260903085024 70 294 4.0 6.0 0.00 0.04 0.00 73 1018.6
20260903084513 69 280 2.0 3.0 0.00 0.04 0.00 73 1018.6
20260903084013 69 293 4.0 8.0 0.00 0.04 0.00 73 1018.4
20260903083513 69 297 4.0 8.0 0.00 0.04 0.00 73 1018.4
20260903083012 69 320 4.0 7.0 0.00 0.04 0.00 73 1018.3
20260903082512 69 323 2.0 4.0 0.00 0.04 0.00 74 1018.5
20260903082012 69 325 5.0 8.0 0.00 0.04 0.00 74 1018.4
20260903081511 69 306 3.0 4.0 0.00 0.04 0.00 74 1018.3
20260903081016 69 287 4.0 6.0 0.00 0.04 0.00 75 1018.1
20260903080516 69 312 4.0 5.0 0.00 0.04 0.00 75 1018.2
20260903080015 69 285 4.0 6.0 0.00 0.04 0.00 76 1018.0
20260903075515 69 254 7.0 9.0 0.00 0.04 0.00 76 1017.9
20260903075018 68 221 4.0 7.0 0.00 0.04 0.00 76 1017.8
20260903074502 68 229 4.0 8.0 0.00 0.04 0.00 77 1017.9
20260903074002 68 230 4.0 8.0 0.00 0.04 0.00 77 1017.7
20260903073502 68 232 3.0 4.0 0.00 0.04 0.00 78 1017.5
20260903073017 67 240 5.0 9.0 0.00 0.04 0.00 80 1017.6
20260903072516 67 248 4.0 7.0 0.00 0.04 0.00 80 1017.4
20260903072016 67 238 4.0 8.0 0.00 0.04 0.00 82 1017.5
20260903071513 67 231 8.0 10.0 0.00 0.04 0.00 82 1017.3
20260903071013 67 231 2.0 6.0 0.00 0.04 0.00 83 1017.4
20260903070512 67 224 4.0 5.0 0.00 0.04 0.00 83 1017.3
20260903070012 67 222 2.0 3.0 0.00 0.04 0.00 83 1017.1
20260903065512 67 228 5.0 8.0 0.00 0.04 0.00 83 1017.2
20260903065012 67 231 4.0 7.0 0.00 0.04 0.00 84 1017.1
20260903064511 67 176 4.0 4.0 0.00 0.04 0.00 84 1017.1
20260903064025 66 178 4.0 10.0 0.00 0.04 0.00 84 1017.2
20260903063515 66 246 3.0 5.0 0.00 0.04 0.00 84 1017.5
20260903063014 66 258 3.0 4.0 0.00 0.04 0.00 84 1017.4
20260903062514 66 240 1.0 2.0 0.00 0.04 0.00 84 1017.4
20260903062014 66 270 2.0 3.0 0.00 0.04 0.00 84 1017.6
20260903061513 66 278 2.0 3.0 0.00 0.04 0.00 83 1017.6
20260903061018 66 257 2.0 3.0 0.00 0.04 0.00 83 1017.5
20260903060518 66 252 2.0 4.0 0.00 0.04 0.00 83 1017.5
20260903060007 66 272 1.0 2.0 0.00 0.04 0.00 83 1017.6
20260903055507 66 262 4.0 5.0 0.00 0.04 0.00 83 1017.6
20260903055022 66 241 4.0 5.0 0.00 0.04 0.00 83 1017.3
20260903054506 66 259 3.0 4.0 0.00 0.04 0.00 83 1017.4
20260903054005 66 255 3.0 5.0 0.00 0.04 0.00 83 1017.4
20260903053505 66 253 3.0 6.0 0.00 0.04 0.00 83 1017.4
20260903053035 66 242 4.0 4.0 0.00 0.04 0.00 83 1017.4
20260903052509 66 267 4.0 6.0 0.00 0.04 0.00 83 1017.3
20260903052008 66 256 4.0 5.0 0.00 0.04 0.00 83 1017.2
20260903051508 66 297 3.0 7.0 0.00 0.04 0.00 84 1017.1
20260903051023 66 357 4.0 9.0 0.00 0.04 0.00 84 1016.7
20260903050522 66 268 4.0 4.0 0.00 0.04 0.00 84 1017.0
20260903050011 66 276 7.0 9.0 0.00 0.04 0.00 85 1017.0
20260903045511 66 247 2.0 4.0 0.00 0.04 0.00 85 1017.0
20260903045025 66 258 3.0 4.0 0.00 0.04 0.00 85 1016.9
20260903044510 66 294 2.0 3.0 0.00 0.04 0.00 85 1016.9
20260903044009 72 316 2.0 3.0 0.00 0.04 0.00 88 1017.0
20260903043524 66 313 4.0 5.0 0.00 0.04 0.00 86 1017.1
20260903043013 66 247 2.0 3.0 0.00 0.04 0.00 86 1016.9
20260903042513 66 267 1.0 2.0 0.00 0.04 0.00 86 1016.9
20260903042012 66 281 2.0 3.0 0.00 0.04 0.00 86 1017.0
20260903041502 66 251 2.0 4.0 0.00 0.04 0.00 85 1017.0
20260903041017 66 267 1.0 2.0 0.00 0.04 0.00 85 1017.1
20260903040516 66 268 1.0 2.0 0.00 0.04 0.00 85 1016.9
20260903040016 66 272 2.0 2.0 0.00 0.04 0.00 85 1016.9
20260903035515 66 259 2.0 3.0 0.00 0.04 0.00 85 1017.3
20260903035015 66 243 2.0 4.0 0.00 0.04 0.00 85 1017.0
20260903034529 66 254 2.0 2.0 0.00 0.04 0.00 85 1017.0
20260903034014 66 252 2.0 4.0 0.00 0.04 0.00 85 1017.1
20260903033513 66 258 2.0 3.0 0.00 0.04 0.00 85 1017.0
20260903033013 66 251 3.0 4.0 0.00 0.04 0.00 85 1016.9
20260903032512 66 246 3.0 5.0 0.00 0.04 0.00 84 1016.9
20260903032012 66 235 4.0 8.0 0.00 0.04 0.00 84 1017.0
20260903031511 66 211 4.0 5.0 0.00 0.04 0.00 84 1016.9
20260903031011 66 227 2.0 4.0 0.00 0.04 0.00 84 1016.8
20260903030510 66 231 4.0 6.0 0.00 0.04 0.00 84 1016.9
20260903030007 66 238 3.0 4.0 0.00 0.04 0.00 85 1016.7
20260903025521 66 227 4.0 8.0 0.00 0.04 0.00 85 1017.1
20260903025011 66 226 5.0 6.0 0.00 0.04 0.00 85 1016.8
20260903024511 66 256 2.0 7.0 0.00 0.04 0.00 85 1016.8
20260903024011 66 254 4.0 6.0 0.00 0.04 0.00 85 1016.7
20260903023510 66 244 4.0 7.0 0.00 0.04 0.00 85 1016.8
20260903023025 66 239 6.0 10.0 0.00 0.04 0.00 85 1017.1
20260903022510 66 263 2.0 3.0 0.00 0.04 0.00 85 1017.1
20260903022009 66 268 4.0 5.0 0.00 0.04 0.00 85 1016.9
20260903021509 66 258 4.0 6.0 0.00 0.04 0.00 85 1016.8
20260903021024 66 248 3.0 4.0 0.00 0.04 0.00 85 1017.0
20260903020509 66 275 4.0 5.0 0.00 0.04 0.00 85 1016.9
20260903020008 66 247 4.0 5.0 0.00 0.04 0.00 85 1016.9
20260903015523 66 223 4.0 5.0 0.00 0.04 0.00 85 1016.8
20260903015012 66 238 5.0 8.0 0.00 0.04 0.00 85 1016.9
20260903014512 66 249 4.0 7.0 0.00 0.04 0.00 84 1016.9
20260903014017 66 232 3.0 4.0 0.00 0.04 0.00 84 1016.9
20260903013516 66 241 2.0 3.0 0.00 0.04 0.00 84 1017.1
20260903013015 66 227 2.0 3.0 0.00 0.04 0.00 84 1017.2
20260903012515 66 220 2.0 4.0 0.00 0.04 0.00 84 1017.1
20260903012014 66 240 2.0 4.0 0.00 0.04 0.00 85 1016.9
20260903011514 66 241 2.0 4.0 0.00 0.04 0.00 84 1017.2
20260903011019 66 254 2.0 2.0 0.00 0.04 0.00 85 1017.3
20260903010503 66 252 3.0 4.0 0.00 0.04 0.00 84 1017.2
20260903010003 66 250 2.0 4.0 0.00 0.04 0.00 84 1017.1
20260903005503 66 271 2.0 2.0 0.00 0.04 0.00 84 1017.4
20260903005017 66 268 3.0 4.0 0.00 0.04 0.00 84 1017.4
20260903004507 66 267 2.0 3.0 0.00 0.04 0.00 85 1017.4
20260903004006 66 251 3.0 4.0 0.00 0.04 0.00 85 1017.6
20260903003520 66 241 3.0 4.0 0.00 0.04 0.00 85 1017.6
20260903003010 66 256 3.0 4.0 0.00 0.04 0.00 85 1017.6
20260903002507 66 250 2.0 5.0 0.00 0.04 0.00 85 1017.7
20260903002021 66 258 3.0 4.0 0.00 0.04 0.00 85 1017.8
20260903001511 66 244 2.0 3.0 0.00 0.04 0.00 85 1017.7
20260903001010 66 255 2.0 4.0 0.00 0.04 0.00 85 1017.5
20260903000510 66 263 4.0 5.0 0.00 0.04 0.00 85 1017.6
20260903000009 66 241 2.0 4.0 0.00 0.04 0.00 85 1017.7
20260902235509 66 233 2.0 2.0 0.00 0.04 0.00 85 1017.7
20260902235009 66 233 4.0 6.0 0.00 0.04 0.00 85 1017.6
20260902234508 66 239 4.0 6.0 0.00 0.04 0.00 85 1017.9
20260902234013 66 243 3.0 4.0 0.00 0.04 0.00 85 1017.7
20260902233518 66 243 3.0 4.0 0.00 0.04 0.00 85 1017.8
20260902233007 66 232 3.0 4.0 0.00 0.04 0.00 85 1017.7
20260902232507 66 234 4.0 5.0 0.00 0.04 0.00 85 1017.7
20260902232007 66 245 2.0 3.0 0.00 0.04 0.00 85 1017.7
20260902231507 66 228 2.0 4.0 0.00 0.04 0.00 85 1017.8
20260902231021 66 247 3.0 4.0 0.00 0.04 0.00 85 1017.7
20260902230520 66 247 2.0 3.0 0.00 0.04 0.00 85 1018.1
20260902230010 66 245 2.0 4.0 0.00 0.04 0.00 85 1018.1
20260902225525 66 251 3.0 4.0 0.00 0.04 0.00 85 1018.3
20260902225015 66 239 3.0 4.0 0.00 0.04 0.00 85 1018.1
20260902224514 66 278 2.0 4.0 0.00 0.04 0.00 85 1017.8
20260902224014 66 279 5.0 8.0 0.00 0.04 0.00 85 1017.7
20260902223514 66 240 4.0 6.0 0.00 0.04 0.00 86 1017.8
20260902223014 66 254 2.0 4.0 0.00 0.04 0.00 86 1017.8
20260902222513 66 256 2.0 4.0 0.00 0.04 0.00 86 1017.7
20260902222013 66 250 3.0 5.0 0.00 0.04 0.00 86 1018.0
20260902221518 66 242 6.0 8.0 0.00 0.04 0.00 86 1017.9
20260902221017 66 226 3.0 6.0 0.00 0.04 0.00 87 1018.0
20260902220517 66 212 4.0 6.0 0.00 0.04 0.00 87 1018.0
20260902220016 66 232 5.0 7.0 0.00 0.04 0.00 87 1018.0
20260902215516 66 237 4.0 5.0 0.00 0.04 0.00 87 1018.1
20260902215016 66 243 4.0 6.0 0.00 0.04 0.00 87 1018.2
20260902214516 66 258 3.0 4.0 0.00 0.04 0.00 86 1018.1
20260902214010 66 242 1.0 2.0 0.00 0.04 0.00 86 1017.8
20260902213510 66 246 2.0 3.0 0.00 0.04 0.00 86 1017.4
20260902213025 66 234 2.0 2.0 0.00 0.04 0.00 86 1017.7
20260902212514 66 230 2.0 2.0 0.00 0.04 0.00 86 1017.5
20260902212014 64 232 2.0 4.0 0.00 0.04 0.00 85 1017.5
20260902211514 66 235 5.0 6.0 0.00 0.04 0.00 86 1017.6
20260902211013 66 250 1.0 2.0 0.00 0.04 0.00 86 1017.7
20260902210513 66 242 5.0 8.0 0.00 0.04 0.00 87 1017.7
20260902210012 66 261 3.0 4.0 0.00 0.04 0.00 87 1018.0
20260902205512 66 300 2.0 2.0 0.00 0.04 0.00 87 1017.7
20260902205027 66 282 7.0 9.0 0.00 0.04 0.00 87 1017.7
20260902204511 66 213 1.0 2.0 0.00 0.04 0.00 87 1017.9
20260902204011 66 213 2.0 2.0 0.00 0.04 0.00 87 1017.7
20260902203511 66 210 3.0 4.0 0.00 0.04 0.00 88 1017.7
20260902203025 66 232 3.0 4.0 0.00 0.04 0.00 88 1017.7
20260902202510 66 242 2.0 2.0 0.00 0.04 0.00 88 1017.7
20260902202010 66 247 2.0 3.0 0.00 0.04 0.00 88 1017.7
20260902201509 66 253 3.0 4.0 0.00 0.04 0.00 88 1017.6
20260902201009 66 220 0.0 2.0 0.00 0.04 0.00 88 1017.6
20260902200509 66 225 2.0 2.0 0.00 0.04 0.00 88 1017.5
20260902200008 66 214 2.0 3.0 0.00 0.04 0.00 88 1017.5
20260902195508 66 203 2.0 2.0 0.00 0.04 0.00 88 1017.4
20260902195023 66 202 4.0 6.0 0.00 0.04 0.00 88 1017.4
20260902194527 66 219 5.0 8.0 0.00 0.04 0.00 88 1017.5
20260902194017 66 259 2.0 4.0 0.00 0.04 0.00 88 1017.5
20260902193516 66 256 2.0 3.0 0.00 0.04 0.00 88 1017.7
20260902193015 66 258 2.0 4.0 0.00 0.04 0.00 88 1017.8
20260902192515 66 244 4.0 6.0 0.00 0.04 0.00 88 1017.5
20260902192015 66 259 2.0 3.0 0.00 0.04 0.00 88 1017.5
20260902191515 66 253 2.0 4.0 0.00 0.04 0.00 89 1017.6
20260902191014 66 244 3.0 4.0 0.00 0.04 0.00 89 1017.5
20260902190514 66 239 4.0 7.0 0.00 0.04 0.00 90 1017.4
20260902190014 66 255 2.0 3.0 0.00 0.04 0.00 90 1017.3
20260902185513 66 281 2.0 3.0 0.00 0.04 0.00 90 1017.5
20260902185003 66 265 1.0 2.0 0.00 0.04 0.00 90 1017.2
20260902184502 66 263 2.0 3.0 0.00 0.04 0.00 90 1017.1
20260902184017 66 270 4.0 5.0 0.00 0.04 0.00 89 1017.0
20260902183517 66 241 1.0 3.0 0.00 0.04 0.00 89 1017.2
20260902183021 66 246 4.0 7.0 0.00 0.04 0.00 89 1017.2
20260902182505 66 236 5.0 8.0 0.00 0.04 0.00 89 1017.2
20260902182005 66 220 4.0 7.0 0.00 0.04 0.00 90 1017.1
20260902181504 66 235 4.0 5.0 0.00 0.04 0.00 90 1017.1
20260902181003 66 232 4.0 5.0 0.00 0.04 0.00 90 1017.2
20260902180518 66 272 5.0 7.0 0.00 0.04 0.00 90 1017.3
20260902180013 66 276 3.0 5.0 0.00 0.04 0.00 91 1017.3
20260902175512 66 318 2.0 3.0 0.00 0.04 0.00 91 1017.4
20260902175012 65 256 4.0 5.0 0.00 0.04 0.00 92 1017.4
20260902174511 65 146 4.0 5.0 0.00 0.04 0.00 92 1017.4
20260902174011 65 189 4.0 6.0 0.00 0.04 0.00 92 1017.4
20260902173510 65 211 3.0 4.0 0.00 0.04 0.00 93 1017.5
20260902173025 65 191 4.0 5.0 0.00 0.04 0.00 93 1017.3
20260902172514 65 157 5.0 8.0 0.00 0.04 0.00 93 1017.4
20260902172014 65 121 3.0 6.0 0.00 0.04 0.00 93 1017.6
20260902171514 65 168 6.0 10.0 0.00 0.04 0.00 93 1017.3
20260902171013 65 212 3.0 5.0 0.00 0.04 0.00 93 1017.5
20260902170503 65 259 4.0 7.0 0.00 0.04 0.00 92 1017.3
20260902170002 65 217 4.0 5.0 0.00 0.04 0.00 92 1017.4
20260902165517 65 222 4.0 6.0 0.00 0.04 0.00 92 1017.5
20260902165014 65 234 8.0 13.0 0.00 0.04 0.00 92 1017.4
20260902164459 65 245 4.0 5.0 0.00 0.04 0.00 92 1017.3
20260902163513 65 240 4.0 7.0 0.00 0.04 0.00 92 1017.3
20260902163003 65 258 2.0 3.0 0.00 0.04 0.00 92 1017.5
20260902162518 65 246 5.0 8.0 0.00 0.04 0.00 92 1017.6